STARLINK-32253 (60733 NORAD) Tracking and Keplerian Element Data

This shows tracking and keplerian element data for the satellite.

Feedback or suggestion? Click here.




ElementValue
Catalog60733
NameSTARLINK-32253
Epoch Orbit827
Epoch Day286.78434216
Epoch Year2024
RAAN130.7476
Inclination53.1622
Eccentricity0.0001316
Argument of Perigee103.5607
Mean Anonmoly256.5541
Mean Motion15.30204927
Decay Rate9.66E-06
L11 60733U 24152P 24286.78434216 .00000966 00000+0 44735-4 0 9997
L22 60733 53.1622 130.7476 0001316 103.5607 256.5541 15.30204927 8279



Live tracking and technical data element details for STARLINK-32253 (NORAD 60733). STARLINK-32253 can be tracked NOW for your location showing map with azimuth and elevation plus other details from your city location.







IsCatalogInMostPopularTable: catalog: 60733, numindb: 8
Update: records affected: 1



GetName: 60733 STARLINK-32253

Hit Count: updated at: Wed, 04 Dec 2024 19:37:49 GMT